Погода в Тюмени

Погода в Тюмени : погода сейчас, прогноз погоды и архив. Всё, что Вы хотите узнать о погоде в Тюмени!

Хотите узнать прогноз погоды в Тюмени? Тогда Вам сюда: Погода в Тюмени

Поиск расширенной информации на нашем сайте:

Другие новости

Новости СМИ2

Главная страница сайта

Новости сайта

03.07.2017

Напоминаем, что на нашем специализированном сайте Метеоцентр.Азия вы можете получить высокодетализированные автоматические прогнозы погоды по пунктам России, СНГ и мира в авиационном формате (включающие направление и скорость ветра, видимость, явления погоды, количество и форму облачности, нижнюю и верхнюю границу облачности).


Погода в Тюмени - сегодня

Время (UTC), дата Ветер
(°,м/с) 
Видим.   Явления Облачность Т
(°С)
Тd
(°С)
f(%) Тe
(°С)
Pmin
(гПа)
dP
(гПа)
Po
(мм)
O2
(г/м3)
Тmin Tmax R s Состояние
почвы
21 11.11.18 250 (З) 10 км    ясно 
-10.5 -13.1 81 -15  1036  -1.6  767  323           
00 12.11.18 250 (З) 10 км    ясно 
-11.1 -13.2 84 -14  1035.2  -0.8  766  323           
03 12.11.18 240 (ЮЗ) 4000 м    ясно 
-11.5 -13.6 84 -15  1034.2  -1  765  323  -11.5      <0.5  равномерный
сухой снег
100% 
06 12.11.18 240 (ЮЗ) 4000 м    1/0 верхняя 
[Ci fib]
-6.8 -12 66 -9  1033  -0.9  765  317           
09 12.11.18 270 (З) 5{11}  4000 м    9/0 средняя, верхняя 
[Ac trans|Cs]
-2.2 -15.1 36 -6  1031.6  -1.2  764  312           
12 12.11.18 280 (З) 3{11}  4000 м    4/0 верхняя 
[Cc]
-3.8 -12.8 50 -6  1031.3  -0.3  764  313           
15 12.11.18 280 (З) 4{10}  10 км    10/10 1200 м 
[Sc]
-3.4 -9.5 63 -6  1031.6  0.3  764  313    -1.8       
18 12.11.18 270 (З) 10 км    10/10 900 м 
[Sc]
-4.6 -10.3 64 -7  1031.7  764  314           
21 12.11.18 280 (З) 10 км    10/10 600 м 
[Sc]
-4 -9.8 64 -6  1032.4  0.7  764  314           
00 13.11.18 270 (З) 10 км    10/10 600 м 
[Sc]
-3.7 -9.5 64 -6  1032.6  0.2  765  313           
03 13.11.18 270 (З) 4000 м    10/10 600 м 
[Sc]
-3.3 -10.1 59 -5  1033.3  0.7  765  313  -4.7      сухой снег
10-40% 
06 13.11.18 260 (З) 4000 м    10/10 600 м 
[Sc]
-3.1 -11.5 52 -5  1033.5  0.1  765  313           
09 13.11.18 240 (ЮЗ) 4000 м    10/0 средняя, верхняя 
[Ac trans|Cs]
-2.3 -11.2 50 -4  1032.8  -0.6  765  312           
12 13.11.18 220 (ЮЗ) 4000 м    10/0 верхняя 
[Cs]
-3.6 -11.7 53 -5  1032.3  -0.5  764  313           
18 13.11.18 250 (З) 10 км    ясно 
-5.7 -15.6 46 -8  1030.5  -0.6  763  315           
21 13.11.18 250 (З) 10 км    ясно 
-6.4 -15.4 49 -10  1030.1  -0.4  763  316           
00 14.11.18 240 (ЮЗ) 10 км    ясно 
-7.9 -16.2 51 -11  1029.9  -0.3  762  318           
03 14.11.18 230 (ЮЗ) 4000 м    1/0 верхняя 
[Ci fib]
-8.6 -16.4 53 -11  1029.3  -0.7  762  318  -8.8      сухой снег
10-40% 
06 14.11.18 240 (ЮЗ) 4000 м    9/0 верхняя 
[Ci fib]
-4.4 -16.5 38 -8  1028.1  -1  761  313  -9.1         
09 14.11.18 250 (З) 5{11}  4000 м    3/0 верхняя 
[Ci fib]
+0.3 -19 22 -3  1027  -0.9  761  308           
15 14.11.18 240 (ЮЗ) 5{12}  10 км    9/0 средняя 
[Ac As]
-0.3 -19.2 22 -3  1025.8  0.1  760  308    +0.8       
18 14.11.18 250 (З) 4{10}  10 км    10/3 600 м средняя 
[Sc|Ac und]
-0.6 -17.6 26 -3  1026.6  0.8  760  308           
21 14.11.18 250 (З) 10 км    8/0 средняя 
[Ac trans]
-2.3 -16.2 34 -5  1028.1  1.4  761  311           
00 15.11.18 250 (З) 10 км    10/0 средняя 
[Ac und]
-2.6 -13.2 44 -5  1028.5  0.4  762  311           
03 15.11.18 250 (З) 4000 м    9/0 средняя, верхняя 
[Ac trans|Ci sp]
-3.2 -11.6 52 -5  1029.6  1.1  762  312  -3.2         
Время (UTC), дата Ветер
(°,м/с) 
Видим.   Явления Облачность Т
(°С)
Тd
(°С)
f(%) Тe
(°С)
Pmin
(гПа)
dP
(гПа)
Po
(мм)
O2
(г/м3)
Тmin Tmax R s Состояние
почвы

Для получения пояснительной информации подведите курсор к названию столбца.

ПОГОДА в Тюмени - архив

Всё, что Вы хотите узнать о погоде в Тюмени - удобно и подробно!

Выберите нужную дату (начиная с 1 января 2015* года) и нажмите кнопку "Найти".
Будут отображены архивные сводки погоды по пункту Тюмень, начиная с указанной даты.


Отображать данные в формате CSV (для использования в таблицах Excel)


Внимание! Наш архив погоды предназначен исключительно для личного некоммерческого использования в познавательных целях. Если Вам необходимы официальные справки о состоянии погоды (для производственных, юридических, коммерческих и т.п. целей), обращайтесь в органы Росгидромета.

*Примечание: данная дата относится к архиву по метеостанциям СССР (Россия, СНГ, Балтия).
Архив по метеостанциям Зарубежной Европы и Азии (кроме Китая) хранится 10 дней, по другим регионам земного шара (Китай, Африка, Америка, Австралия, Океания) - 1 день.

Тюмень - район местоположения метеостанции


Название, широта, долгота, высота метеостанции:
Тюмень 57.1°ш. 65.4°д. 102 м над ур. моря [Российская Федерация]

Дополнительная информация

В oтличие oт бoльшинства пoгoдных сайтoв мы публикуем пoдрoбную метеoинфoрмацию в детальнoм прoфессиoнальнoм фoрмате.

Характеристики температуры и влажнoсти вoздуха измеряются на высoте 2 м в тени вдали oт зданий и деревьев.
Скoрoсть ветра измеряется на высoте 10 м (на урoвне рoста челoвека скoрoсть ветра ниже в 1.5-2 раза). Если метеoстанция нахoдится в гoрoде или в лесу, тo скoрoсть ветра занижена на 2-4 м/с пo сравнению с oткрытым местoм. Скoрoсть ветра над акватoриями крупных рек и oзёр, а также на вершинах хoлмoв на 2-5 м/с выше, чем в oбычных услoвиях.
Атмoсфернoе давление в разных тoчках местнoсти мoжет значительнo oтличаться oт давления на метеoстанции, в зависимoсти oт услoвий рельефа (при пoдъёме на 10 м давление пoнижается примернo на 1 мм рт.ст.).